(66505) = 1999 RH83

Discovered at Socorro on 1999-09-07 by LINEAR.

Orbit

Orbit type: Main Belt

Note: WebGL enabled browser required.

epoch2024-03-31.0
epoch JD2460400.5
perihelion date2020-07-03.87969
perihelion JD2459034.37969
argument of perihelion (°)248.19086
ascending node (°)162.08750
inclination (°)13.04930
eccentricity0.2015090
perihelion distance (AU)2.0343692
Tisserand w.r.t. Jupiter3.4
ΔV w.r.t. Earth (km/sec)9.8
semimajor axis (AU)2.5477673
mean anomaly (°)331.09541
mean daily motion (°/day)0.24236180
aphelion distance (AU)3.061
period (years)4.07
P-vector [x]0.63168430
P-vector [y]0.76814361
P-vector [z]0.10454830
Q-vector [x]-0.77210905
Q-vector [y]0.61131618
Q-vector [z]0.17360917
absolute magnitude15.53
phase slope0.15
uncertainty0
referenceMPEC 2024-E02
observations used1283
oppositions20
arc length (days)10334
first opposition used1995
last opposition used2023
residual rms (arc-secs)0.64
perturbers coarse indicatorM-v
perturbers precise indicator003Ek
first observation date used1995-07-24.0
last observation date used2023-11-08.0
computer nameMPCLINUX
JD of orbit computation2456937.356835
perihelion JD uncertainty (days)9.5498E-05
argument of perihelion uncertainty (°)2.5419E-05
ascending node uncertainty (°)1.5414E-05
inclination uncertainty (°)6.9817E-06
eccentricity uncertainty 3.5392E-08
perihelion distance uncertainty (AU)9.0402E-08
Minimum Orbit Intersection Distances (in AU)
for orbit epoch: 2460400.5, reference: E2024-E02
Mercury1.72357
Venus1.32885
Earth1.08324
Mars0.66991
Jupiter2.46573
Saturn6.69948
Uranus15.6197
Neptune27.6138

Observations

1316 total observations over interval: 1995 07 24.43368 – 2023 11 08.222461
These data are available for download (format description).

Date (UT) J2000 RA J2000 Dec Magn Location Ref
1995 07 24.43368 00 34 04.03 +03 03 15.1   691 – Steward Observatory, Kitt Peak-Spacewatch MPS 22265
1995 07 24.44459 00 34 04.47 +03 03 13.9   691 – Steward Observatory, Kitt Peak-Spacewatch MPS 22265
1995 07 24.45552 00 34 04.98 +03 03 13.4 19.4 V 691 – Steward Observatory, Kitt Peak-Spacewatch MPS 22265
1997 04 09.49532 11 01 27.86 +10 46 31.5   327 – Peking Observatory, Xinglong Station MPS 22265
1997 04 09.50788 11 01 27.55 +10 46 35.2   327 – Peking Observatory, Xinglong Station MPS 22265
1997 04 09.52064 11 01 27.26 +10 46 39.0 19.5   327 – Peking Observatory, Xinglong Station MPS 22265
1999 09 05.30016 23 48 52.84 -04 26 32.2 18.4 R 699 – Lowell Observatory-LONEOS MPS 6264
1999 09 05.32572 23 48 51.90 -04 26 50.9   699 – Lowell Observatory-LONEOS MPS 6264
1999 09 05.35123 23 48 50.89 -04 27 11.4   699 – Lowell Observatory-LONEOS MPS 6264
1999 09 07.39584 23 47 35.98 -04 53 20.4 18.6   704 – Lincoln Laboratory ETS, New Mexico MPS 6264
1999 09 07.40721 23 47 35.52 -04 53 29.8 18.7   704 – Lincoln Laboratory ETS, New Mexico MPS 6264
1999 09 07.41866 23 47 35.10 -04 53 37.7 18.6   704 – Lincoln Laboratory ETS, New Mexico MPS 6264
1999 09 07.43002 23 47 34.63 -04 53 46.8 18.7   704 – Lincoln Laboratory ETS, New Mexico MPS 6264
1999 09 07.44139 23 47 34.20 -04 53 55.4 18.8   704 – Lincoln Laboratory ETS, New Mexico MPS 6264
1999 09 09.41378 23 46 18.73 -05 19 33.3 18.8   704 – Lincoln Laboratory ETS, New Mexico MPS 6264
1999 09 09.42734 23 46 18.15 -05 19 44.0 18.5   704 – Lincoln Laboratory ETS, New Mexico MPS 6264
1999 09 09.44097 23 46 17.60 -05 19 55.0 18.6   704 – Lincoln Laboratory ETS, New Mexico MPS 6264
1999 09 09.45452 23 46 17.02 -05 20 05.4 18.8   704 – Lincoln Laboratory ETS, New Mexico MPS 6264
1999 09 09.46803 23 46 16.42 -05 20 16.4 19.0   704 – Lincoln Laboratory ETS, New Mexico MPS 6264
1999 09 10.33732 23 45 42.50 -05 31 40.2 18.1   704 – Lincoln Laboratory ETS, New Mexico MPS 6264
1999 09 10.34847 23 45 42.03 -05 31 48.1 18.8   704 – Lincoln Laboratory ETS, New Mexico MPS 6264
1999 09 10.35968 23 45 41.56 -05 31 57.2 19.1   704 – Lincoln Laboratory ETS, New Mexico MPS 6264
1999 09 11.26086 23 45 05.87 -05 43 47.6 18.4 R 699 – Lowell Observatory-LONEOS MPS 6264
1999 09 11.29152 23 45 04.58 -05 44 12.4   699 – Lowell Observatory-LONEOS MPS 6264
1999 09 11.32216 23 45 03.23 -05 44 36.8   699 – Lowell Observatory-LONEOS MPS 6264
1999 09 14.20222 23 43 05.19 -06 22 42.2 18.4   704 – Lincoln Laboratory ETS, New Mexico MPS 6264
1999 09 14.21504 23 43 04.72 -06 22 52.3 18.9   704 – Lincoln Laboratory ETS, New Mexico MPS 6264
1999 09 14.22800 23 43 04.12 -06 23 02.7 18.7   704 – Lincoln Laboratory ETS, New Mexico MPS 6264
1999 09 14.24086 23 43 03.59 -06 23 13.7 18.7   704 – Lincoln Laboratory ETS, New Mexico MPS 6264
1999 09 14.25390 23 43 03.02 -06 23 23.6 18.8   704 – Lincoln Laboratory ETS, New Mexico MPS 6264
1999 09 30.27348 23 31 56.75 -09 46 27.7 19.0   704 – Lincoln Laboratory ETS, New Mexico MPS 6810
1999 09 30.28611 23 31 56.24 -09 46 36.4 19.5   704 – Lincoln Laboratory ETS, New Mexico MPS 6810
1999 09 30.29878 23 31 55.76 -09 46 46.1 19.3   704 – Lincoln Laboratory ETS, New Mexico MPS 6810
1999 09 30.31162 23 31 55.23 -09 46 53.5 19.7   704 – Lincoln Laboratory ETS, New Mexico MPS 6810
1999 10 05.21463 23 28 58.10 -10 40 52.6 18.6 R 699 – Lowell Observatory-LONEOS MPS 11964
1999 10 05.24516 23 28 57.01 -10 41 10.7   699 – Lowell Observatory-LONEOS MPS 11964
1999 10 05.27573 23 28 56.07 -10 41 28.7   699 – Lowell Observatory-LONEOS MPS 11964
1999 10 16.17900 23 24 06.32 -12 18 41.0 18.5   704 – Lincoln Laboratory ETS, New Mexico MPS 11964
1999 10 16.19669 23 24 05.97 -12 18 48.5 18.8   704 – Lincoln Laboratory ETS, New Mexico MPS 11964
1999 10 16.21256 23 24 05.65 -12 18 55.3 18.3   704 – Lincoln Laboratory ETS, New Mexico MPS 11964
1999 10 16.22969 23 24 05.32 -12 19 03.0 18.5   704 – Lincoln Laboratory ETS, New Mexico MPS 11964
1999 10 16.24670 23 24 05.01 -12 19 10.7 19.1   704 – Lincoln Laboratory ETS, New Mexico MPS 11964
1999 11 10.15511 23 25 27.98 -13 45 19.9 19.7   704 – Lincoln Laboratory ETS, New Mexico MPS 7343
1999 11 10.17149 23 25 28.41 -13 45 20.5 19.1   704 – Lincoln Laboratory ETS, New Mexico MPS 7343
1999 11 10.20428 23 25 29.16 -13 45 18.8 19.6   704 – Lincoln Laboratory ETS, New Mexico MPS 7343
2001 01 26.38166 11 17 43.51 +01 36 38.8 19.2   704 – Lincoln Laboratory ETS, New Mexico MPS 24944
2001 01 26.39665 11 17 43.21 +01 36 45.3 19.2   704 – Lincoln Laboratory ETS, New Mexico MPS 24944
2001 01 26.42675 11 17 42.65 +01 36 55.4 19.8   704 – Lincoln Laboratory ETS, New Mexico MPS 24944
2001 01 26.44177 11 17 42.22 +01 37 01.4 19.3   704 – Lincoln Laboratory ETS, New Mexico MPS 24944
2001 02 01.49311 11 15 21.13 +02 17 27.8 20.4 V 691 – Steward Observatory, Kitt Peak-Spacewatch MPS 24944
2001 02 01.51422 11 15 20.50 +02 17 37.0 20.1 V 691 – Steward Observatory, Kitt Peak-Spacewatch MPS 24944
2001 02 01.53531 11 15 19.91 +02 17 46.2 19.6 V 691 – Steward Observatory, Kitt Peak-Spacewatch MPS 24944
2001 02 19.31323 11 03 56.74 +04 54 19.9 19.1   704 – Lincoln Laboratory ETS, New Mexico MPS 26453
2001 02 19.32753 11 03 56.11 +04 54 28.1 18.8   704 – Lincoln Laboratory ETS, New Mexico MPS 26453
2001 02 19.34204 11 03 55.34 +04 54 37.8 19.3   704 – Lincoln Laboratory ETS, New Mexico MPS 26453
2001 02 19.35635 11 03 54.67 +04 54 45.5 19.3   704 – Lincoln Laboratory ETS, New Mexico MPS 26453
2001 02 19.37066 11 03 53.90 +04 54 54.0 19.3   704 – Lincoln Laboratory ETS, New Mexico MPS 26453
2001 02 20.413970 11 03 04.508 +05 05 19.84 19.19 V 645 – Apache Point-Sloan Digital Sky Survey MPS 79587
2001 02 20.417442 11 03 04.338 +05 05 21.91 19.99   645 – Apache Point-Sloan Digital Sky Survey MPS 79587
2001 02 22.31198 11 01 33.39 +05 24 31.3 18.6   704 – Lincoln Laboratory ETS, New Mexico MPS 26453
2001 02 22.32608 11 01 32.62 +05 24 39.5 18.9   704 – Lincoln Laboratory ETS, New Mexico MPS 26453
2001 02 22.34015 11 01 31.91 +05 24 47.6 19.1   704 – Lincoln Laboratory ETS, New Mexico MPS 26454
2001 02 22.35423 11 01 31.19 +05 24 56.0 18.7   704 – Lincoln Laboratory ETS, New Mexico MPS 26454
2001 02 22.36834 11 01 30.49 +05 25 05.8 19.0   704 – Lincoln Laboratory ETS, New Mexico MPS 26454
2001 03 18.25793 10 42 19.71 +09 22 07.1 19.2   704 – Lincoln Laboratory ETS, New Mexico MPS 27509
2001 03 18.27087 10 42 19.14 +09 22 13.9 19.1   704 – Lincoln Laboratory ETS, New Mexico MPS 27509
2001 03 18.28380 10 42 18.57 +09 22 20.7 19.2   704 – Lincoln Laboratory ETS, New Mexico MPS 27509
2001 03 18.29676 10 42 18.03 +09 22 27.2 18.9   704 – Lincoln Laboratory ETS, New Mexico MPS 27509
2001 03 20.36061 10 40 53.47 +09 40 24.3 19.9   608 – Haleakala-AMOS MPS 27509
2001 03 20.37128 10 40 53.00 +09 40 29.7 19.8   608 – Haleakala-AMOS MPS 27509
2001 03 20.38200 10 40 52.53 +09 40 35.1 19.7   608 – Haleakala-AMOS MPS 27509
2001 03 24.24463 10 38 26.30 +10 12 19.7 19.0   704 – Lincoln Laboratory ETS, New Mexico MPS 27509
2001 03 24.25749 10 38 25.82 +10 12 24.7 18.9   704 – Lincoln Laboratory ETS, New Mexico MPS 27509
2001 03 24.27030 10 38 25.32 +10 12 32.3 19.4   704 – Lincoln Laboratory ETS, New Mexico MPS 27509
2001 03 24.29591 10 38 24.41 +10 12 43.8 19.2   704 – Lincoln Laboratory ETS, New Mexico MPS 27509
2001 03 29.13392 10 35 46.94 +10 48 43.4 19.3 R 699 – Lowell Observatory-LONEOS MPS 27509
2001 03 29.16040 10 35 46.05 +10 48 55.8   699 – Lowell Observatory-LONEOS MPS 27509
2001 03 29.18693 10 35 45.25 +10 49 06.6   699 – Lowell Observatory-LONEOS MPS 27509
2001 03 29.21359 10 35 44.39 +10 49 17.3   699 – Lowell Observatory-LONEOS MPS 27509
2003 06 27.38068 23 01 42.14 -00 05 13.6 19.6 R 699 – Lowell Observatory-LONEOS MPS 81861
2003 06 27.39319 23 01 42.64 -00 05 12.0   699 – Lowell Observatory-LONEOS MPS 81861
2003 06 27.40579 23 01 43.14 -00 05 12.1   699 – Lowell Observatory-LONEOS MPS 81861
2003 06 27.41841 23 01 43.53 -00 05 10.8   699 – Lowell Observatory-LONEOS MPS 81861
2003 07 25.03131 23 11 53.45 -00 31 02.5 18.8 R 599 – Campo Imperatore-CINEOS MPS 82365
2003 07 25.04270 23 11 53.47 -00 31 05.3 18.4 R 599 – Campo Imperatore-CINEOS MPS 82365
